Regional Weather Roundup
Issued by NWS

Home | Current Version | Previous Version | Graphics & Text | Print | Product List | Glossary On
Versions: 1 2 3 4 5 6 7 8 9 10 11 12 13 14 15 16 17 18 19 20 21 22 23 24 25 26 27 28 29 30 31 32 33 34 35 36 37 38 39 40 41 42 43 44 45 46 47 48 49 50
280
ASUS43 KMPX 212310
RWRMN
WEATHER ROUNDUP FOR MINNESOTA
NATIONAL WEATHER SERVICE TWIN CITIES/CHANHASSEN MN
500 PM CST SUN JAN 21 2018


NOTE: "FAIR" INDICATES FEW OR NO CLOUDS BELOW 12,000 FEET WITH NO
SIGNIFICANT WEATHER AND/OR OBSTRUCTIONS TO VISIBILITY. N/A MEANS
CURRENT SKY AND/OR WEATHER CONDITIONS ARE NOT AVAILABLE.

MNZ060>063-068>070-220000-
   Twin Cities Metro

CITY           SKY/WX    TMP DP  RH WIND       PRES   REMARKS
TWIN CITIES    CLOUDY    37  30  75 N7        29.94F
ST PAUL        CLOUDY    37  29  72 NW3       29.96S
CRYSTAL        CLOUDY    36  26  67 N6        29.95R
BLAINE         CLOUDY    37  30  75 N6        29.95S
LAKEVILLE      CLOUDY    36  30  80 N6        29.93S
EDEN PRAIRIE   CLOUDY    38  28  67 N8        29.93S
SOUTH ST PAUL  CLOUDY    37  29  72 N5        29.94S
LAKE ELMO      CLOUDY    36  30  80 N6        29.95F
$$
MNZ001>005-007-008-013>017-022>024-027-028-220000-
   Northwest Minnesota

CITY           SKY/WX    TMP DP  RH WIND       PRES   REMARKS
BEMIDJI        CLOUDY    24  23  96 N7        30.04R FOG     WCI  16
HALLOCK        CLOUDY    21  19  93 N5        30.10R WCI  15
ROSEAU         CLOUDY    27  21  80 CALM      30.09R
WARROAD        CLOUDY    27  21  80 CALM      30.09R
THIEF RVR FALL CLOUDY    25  23  92 NE7       30.09R WCI  17
CROOKSTON      FAIR      25  25 100 N5        30.10S WCI  19
FOSSTON        CLOUDY    21  21 100 N8        30.06S WCI  12
DETROIT LAKES  CLOUDY    28  27  93 N7        30.03R WCI  21
MOORHEAD       CLOUDY    25  23  93 N12       30.07R WCI  14
PARK RAPIDS    CLOUDY    27  23  85 N6        30.01R WCI  20
MAHNOMEN       CLOUDY    24  22  96 N12       30.04S WCI  12
$$
MNZ006-009>011-018-025>026-220000-
   North Central Minnesota

CITY           SKY/WX    TMP DP  RH WIND       PRES   REMARKS
BAUDETTE       CLOUDY    25  24  96 CALM      30.07R
FLAG ISLAND    CLOUDY    25  21  86 N5        30.08R WCI  19
INTL FALLS     FOG       26  23  88 CALM      30.06R VSB 1
WASKISH        CLOUDY    25  25 100 CALM      30.06S FOG
BIG FORK       CLOUDY    27  25  93 N3        30.03S
LONGVILLE      CLOUDY    25  21  86 N3        30.02S
GRAND RAPIDS   CLOUDY    27  24  89 N7        30.03S WCI  19
CRANE LAKE     CLOUDY    25  23  93 CALM      30.08R
ORR            CLOUDY    25  23  93 CALM      30.02R
COOK           CLOUDY    25  25 100 CALM      30.03S
WALKER         CLOUDY    24  22  94 N5        30.03R WCI  18
$$
MNZ012-019>021-037-220000-
   Northeast Minnesota

CITY           SKY/WX    TMP DP  RH WIND       PRES   REMARKS
DULUTH         FOG       30  29  96 E9        30.00R VSB 1/4 WCI  22
HIBBING        CLOUDY    26  23  88 N7        30.01R WCI  18
EVELETH        CLOUDY    24  21  88 NE5       30.03R WCI  18
DULUTH HARBOR  CLOUDY    30  30 100 E14       30.05R WCI  20
TWO HARBORS    CLOUDY    32  27  80 NE8       30.01R HAZE    WCI  25
SILVER BAY     FOG       28  28 100 NE9       30.03R VSB 1/4 WCI  20
GRAND MARAIS     N/A     30  28  92 E17       30.08R WCI  18
G MARAIS ARPRT CLOUDY    25  21  86 NE6       30.02R WCI  18
$$
MNZ029>031-032-039>041-046>048-054>057-064-220000-
   West Central Minnesota

CITY           SKY/WX    TMP DP  RH WIND       PRES   REMARKS
FERGUS FALLS   FAIR      28  27  93 N6        30.01S WCI  22
WHEATON        CLOUDY    30  27  86 N8        30.03F WCI  23
MORRIS         CLOUDY    32  28  86 NW6       29.98F WCI  26
ALEXANDRIA     CLOUDY    33  27  78 N6        29.99R WCI  28
ELBOW LAKE     FAIR      31  28  88 N5        30.00S WCI  27
WADENA         FAIR      30  25  80 N5          N/A  WCI  25
GLENWOOD       FAIR      34  28  80 N8        29.98S WCI  27
APPLETON       CLOUDY    34  28  80 N8        29.99S WCI  27
BENSON         CLOUDY    34  30  86 N8        30.00S WCI  27
ORTONVILLE     PTCLDY    30  27  86 N9        30.00R WCI  22
MADISON        CLOUDY    36  30  80 N13       29.98S
WILLMAR        FAIR      36  30  80 N8        29.99R
$$
MNZ033>034-036-042>043-049>051-058-059-220000-
   Central Minnesota

CITY           SKY/WX    TMP DP  RH WIND       PRES   REMARKS
ST CLOUD       CLOUDY    34  29  82 N6        29.97S WCI  29
SAUK CENTRE      N/A     33  28  83 N7        29.99R WCI  27
PAYNESVILLE    CLOUDY    35  31  85 N6        29.98R WCI  30
AITKIN         FAIR      30  25  80 N3        29.99S
PINE RIVER     FAIR      27  21  80 N8        30.04S WCI  18
BRAINERD       FAIR      31  25  78 N7        30.00S WCI  24
STAPLES        MOCLDY    30  25  80 N5        30.00R WCI  25
LONG PRAIRIE   FAIR      32  28  86 NW3       29.99R
LITTLE FALLS   CLOUDY    32  23  69 N3        30.00R
LITCHFIELD     CLOUDY    36  30  80 N6        29.96R
BUFFALO        CLOUDY    35  28  76 N3        29.97R
MAPLE LAKE     CLOUDY    36  31  85 MISG      29.97R
HUTCHINSON     CLOUDY    36  31  82 N6        29.96R
$$
MNZ037-044-045-052-053-220000-
   East Central Minnesota

CITY           SKY/WX    TMP DP  RH WIND       PRES   REMARKS
PRINCETON      MOCLDY    37  30  75 N5        29.98R
MORA           FAIR      36  28  75 CALM      29.99S
CAMBRIDGE        N/A     37  27  65 N6        29.97S
RUSH CITY      CLOUDY    35  28  78 N5        29.97F WCI  31
MOOSE LAKE     MOCLDY    32  27  80 N5        29.98S WCI  27
CLOQUET        FAIR      34  25  69 CALM      29.99S
MCGREGOR       FAIR      32  27  80 N5        30.00S WCI  27
$$
MNZ071>073-080-081-089-090-097-098-220000-
   Southwest Minnesota

CITY           SKY/WX    TMP DP  RH WIND       PRES   REMARKS
MONTEVIDEO     CLOUDY    34  30  86 NE12      29.97S WCI  25
GRANITE FALLS  CLOUDY    36  32  85 N17G23    29.96S
CANBY          CLOUDY    33  30  87 NW12      29.98R WCI  24
MARSHALL       CLOUDY    34  29  82 N15       29.94F WCI  24
REDWOOD FALLS  CLOUDY    37  29  72 N10       29.93S
OLIVIA         CLOUDY    36  32  87 N7        29.94F
PIPESTONE      CLOUDY    34  30  86 NE16G22   29.87S WCI  23
WINDOM         CLOUDY    36  19  51 N13       29.89R
WORTHINGTON    CLOUDY    35  30  82 N18       29.87R WCI  24
JACKSON        CLOUDY    36  32  87 N14       29.88R
TRACY          CLOUDY    35  32  90 N12       29.91R WCI  26
SLAYTON        CLOUDY    34  30  86 N16       29.90R WCI  23
$$
MNZ065>067-074>077-082>085-091>093-220000-
   South Central Minnesota

CITY           SKY/WX    TMP DP  RH WIND       PRES   REMARKS
MANKATO        CLOUDY    37  30  75 NE10      29.91R
NEW ULM        MOCLDY    36  28  75 NE12      29.91S
ST JAMES       CLOUDY    37  30  75 N12       29.91R
FAIRMONT       CLOUDY    38  31  76 NE9       29.88R
GLENCOE        CLOUDY    36  32  87 N5        29.94R
FARIBAULT      MOCLDY    37  30  75 N9        29.91R
OWATONNA       CLOUDY    37  30  75 N12G22    29.89S
WASECA         CLOUDY    36  30  80 N12G18    29.90S
ALBERT LEA     CLOUDY    37  30  75 NE10      29.87S
$$
MNZ078>079-086>088-094>096-220000-
   Southeast Minnesota

CITY           SKY/WX    TMP DP  RH WIND       PRES   REMARKS
ROCHESTER      CLOUDY    37  31  78 NE10      29.89S
RED WING       FAIR      39  27  60 CALM      29.92F
STANTON        FAIR      36  31  81 NE9       29.91S
DODGE CENTER   CLOUDY    36  30  80 NE7       29.89S
WINONA         CLOUDY    36  32  87 CALM      29.91S
AUSTIN         CLOUDY    36  30  80 NE9       29.87F
PRESTON        CLOUDY    36  31  81 NE8       29.89S
$$
ABBREVIATIONS USED IN REMARKS
   TC - TEMPERATURES IN CELSIUS
  WCI - WIND CHILL INDEX
   HX - HEAT INDEX
  VSB - VISIBILITY
$$




USA.gov is the U.S. government's official web portal to all federal, state and local government web resources and services.